This is the latest recevied weather packets stored in our database for station/object W7KKE-3. If no packets are shown the sender has not sent any weather packets the latest 10 day(s).
| Time | Temp. | Humidity | Pressure | Rain* | Wind** | Luminosity | Snow |
|---|---|---|---|---|---|---|---|
| 1777750907 | 16.67° C | 72% | 1011.5 hPa | 0 mm | - | - | - |
| 1777750604 | 17.22° C | 73% | 1011.5 hPa | 0 mm | - | - | - |
| 1777750304 | 16.67° C | 74% | 1011.2 hPa | 0 mm | - | - | - |
| 1777750004 | 16.67° C | 74% | 1011.3 hPa | 0 mm | - | - | - |
| 1777749704 | 16.67° C | 74% | 1011.4 hPa | 0 mm | - | - | - |
| 1777749404 | 16.67° C | 74% | 1011.5 hPa | 0 mm | - | - | - |
| 1777748804 | 16.67° C | 74% | 1011.6 hPa | 0 mm | - | - | - |
| 1777748206 | 16.11° C | 75% | 1011.7 hPa | 0 mm | - | - | - |
| 1777747903 | 16.11° C | 75% | 1011.6 hPa | 0 mm | - | - | - |
| 1777747604 | 15.56° C | 76% | 1011.6 hPa | 0 mm | - | - | - |
| 1777747311 | 15.56° C | 74% | 1011.9 hPa | 0 mm | - | - | - |
| 1777747304 | 15.56° C | 74% | 1011.9 hPa | 0 mm | - | - | - |
| 1777747003 | 15.56° C | 77% | 1012 hPa | 0 mm | - | - | - |
| 1777746703 | 15° C | 77% | 1012 hPa | 0 mm | - | - | - |
| 1777746404 | 15° C | 76% | 1012.2 hPa | 0 mm | - | - | - |
| 1777746103 | 15° C | 77% | 1012.1 hPa | 0 mm | - | - | - |
| 1777745804 | 14.44° C | 78% | 1012 hPa | 0 mm | - | - | - |
| 1777745504 | 14.44° C | 78% | 1012 hPa | 0 mm | - | - | - |
| 1777745204 | 14.44° C | 79% | 1012 hPa | 0 mm | - | - | - |
| 1777744604 | 13.89° C | 79% | 1011.9 hPa | 0 mm | - | - | - |
| 1777744303 | 13.33° C | 79% | 1011.8 hPa | 0 mm | - | - | - |
| 1777744004 | 13.33° C | 79% | 1011.8 hPa | 0 mm | - | - | - |
| 1777743705 | 13.33° C | 79% | 1011.8 hPa | 0 mm | - | - | - |
| 1777743404 | 13.33° C | 79% | 1011.9 hPa | 0 mm | - | - | - |
| 1777743103 | 12.78° C | 79% | 1012 hPa | 0 mm | - | - | - |
* Rain latest hour (hover to see other rain measurements)
** Current wind speed in m/s (hover to see current wind gust speed)